This demonstration page uses our WeatherBlox Daily Observations layout. Learn more.

38.89511, -77.03637

Hourly Observations for February 2, 2015

Temp ( °F °C ) Dew Point ( °F °C ) Humidity (%) Winds ( mph kmh ) Pressure ( in mb ) Visibility ( mi km ) Precip ( " mm )
12:52 am 00:52 Cloudy 38 3.3 32 0 79 79 Calm 29.76 1008 10 16.0934 0.02 0.508
1:52 am 01:52 Cloudy with Light Rain 38 3.3 32 0 79 79 Calm 29.7 1006 10 16.0934 0.01 0.254
2:52 am 02:52 Cloudy 38 3.3 33 0.6 83 83 Calm 29.64 1004 9 14.48406 0.01 0.254
3:24 am 03:24 Cloudy 37 3 34 1 87 87 ENE 3 6 29.62 1003 7 11.26538 0 0
3:52 am 03:52 Cloudy 38 3.3 33 0.6 83 83 E 5 7 29.57 1001 8 12.87472 0 0
4:52 am 04:52 Cloudy 39 3.9 34 1.1 82 82 N 5 7 29.54 1001 7 11.26538 0 0
5:52 am 05:52 Cloudy with Mist and Fog 38 3.3 34 1.1 86 86 NE 6 9 29.5 999 6 9.65604 0 0
6:52 am 06:52 Cloudy with Light Rain 38 3.3 34 1.1 86 86 E 3 6 29.48 998 5 8.0467 0 0.0254
7:30 am 07:30 Cloudy with Mist and Fog 39 4 36 2 87 87 Calm 29.47 998 5 8.0467 0 0
7:52 am 07:52 Cloudy with Haze 39 3.9 34 1.1 82 82 ENE 5 7 29.46 998 3 4.82802 0 0.0254
8:11 am 08:11 Cloudy with Light Rain 39 4 36 2 87 87 NNE 3 6 29.44 997 2.5 4.02335 0 0.0254
8:17 am 08:17 Cloudy with Light Rain 39 4 36 2 87 87 NE 3 6 29.47 998 2.5 4.02335 0 0.0254
8:32 am 08:32 Cloudy with Light Rain 39 4 36 2 87 87 ENE 3 6 29.44 997 3 4.82802 0 0
8:47 am 08:47 Cloudy with Mist and Fog 39 4 36 2 87 87 Calm 29.44 997 3 4.82802 0.01 0.254
8:52 am 08:52 Cloudy with Mist and Fog 39 3.9 35 1.7 86 86 NNE 3 6 29.46 998 3 4.82802 0.01 0.254
9:06 am 09:06 Cloudy with Haze 41 5 36 2 81 81 N 9 15 29.47 998 5 8.0467 0 0
9:24 am 09:24 Cloudy with Light Rain 43 6 37 3 81 81 Calm 29.44 997 2.5 4.02335 0 0
9:41 am 09:41 Cloudy with Light Rain 41 5 36 2 81 81 NNE 7 11 29.44 997 3 4.82802 0.04 1.016
9:52 am 09:52 Cloudy with Light Rain 41 5 37 2.8 86 86 Calm 29.47 998 4 6.43736 0.04 1.016
10:52 am 10:52 Cloudy with Light Rain 46 7.8 39 3.9 77 77 NNW 10 17 29.47 998 10 16.0934 0 0.0254
11:52 am 11:52 Cloudy 47 8.3 35 1.7 63 63 NW 18 30 29.44 997 10 16.0934 0 0.0254
12:52 pm 12:52 Cloudy 49 9.4 31 -0.6 50 50 NW 15 24 29.45 997 10 16.0934 0 0
1:52 pm 13:52 Mostly Cloudy 49 9.4 27 -2.8 43 43 NW 20 31 29.48 998 10 16.0934 0 0
2:52 pm 14:52 Mostly Cloudy 45 7.2 22 -5.6 40 40 WNW 29 46 29.57 1001 10 16.0934 0 0
3:52 pm 15:52 Mostly Cloudy 40 4.4 17 -8.3 40 40 WNW 24 39 29.65 1004 10 16.0934 0 0
4:52 pm 16:52 Mostly Cloudy 34 1.1 14 -10 44 44 NW 25 41 29.74 1007 10 16.0934 0 0
5:52 pm 17:52 Partly Cloudy 32 0 11 -11.7 41 41 NW 21 33 29.83 1010 10 16.0934 0 0
6:52 pm 18:52 Mostly Clear 30 -1.1 10 -12.2 43 43 NW 23 37 29.9 1013 10 16.0934 0 0
7:52 pm 19:52 Mostly Clear 29 -1.7 10 -12.2 45 45 NW 15 24 29.97 1015 10 16.0934 0 0
8:52 pm 20:52 Mostly Clear 28 -2.2 9 -12.8 44 44 NW 22 35 30.02 1017 10 16.0934 0 0
9:52 pm 21:52 Clear 28 -2.2 9 -12.8 44 44 NW 16 26 30.08 1019 10 16.0934 0 0
10:52 pm 22:52 Clear 28 -2.2 8 -13.3 43 43 NW 16 26 30.1 1019 10 16.0934 0 0
11:52 pm 23:52 Clear 27 -2.8 7 -13.9 43 43 NW 14 22 30.13 1020 10 16.0934 0 0

Powered by AerisWeather